Starlink 6173

operational
NORAD ID: 56385 Int'l Des: 2023-061 Owner: SPXS Country: US Constellation: starlink
LEOCIRCULAR

Starlink 6173について

説明を読み込み中...

リアルタイム位置

3D地球を読み込み中...

次回通過

高度履歴

Altitude vs Time

uPlot chart will show altitude changes over time

軌道要素

1 56385U 23061M 25259.16498539 .00000441 00000-0 47699-4 0 9995
2 56385 43.0029 65.6063 0001032 274.4005 85.6719 15.02533304130502
Epoch: Sep 16, 2025 • Age: 14 hours

現在のステータス

高度 558.8 km
速度 7.58 km/s
衛星直下点 1.17°N, 17.33°W
打ち上げ日 May 4, 2023
運用期間 2.3 years
タイプ internet

技術仕様

分類 Payload
質量 305.00 kg
乾燥質量 290.00 kg
総質量 305.00 kg
長さ 0.20 m
直径 2.80 m
スパン 9.00 m
形状 Box + pan
製造者 SPXS
バスタイプ Starlink
フェーズステータス In Orbit
所有者/国 SPXS/US

大規模コンステレーション

Loading constellations...